Cloud_Cover
1 0 0 0 0 0 5 34 5 5 4 4 0 0 0 4 17 5 0 0 5 3 0 0 0 0 0 0 5 33 50 6 14 0 5 23 100 100 98 5 6 61 16
5 0 0 0 0 0 0 5 5 8 7 7 5 4 1 0 2 0 5 1 0 0 0 0 0 0 4 5 5 7 5 20 100 57 100 100 97 12 82 48 5 5 5
41 2 1 0 0 0 0 0 0 14 5 34 4 11 5 5 3 3 0 4 4 0 0 0 3 5 5 30 20 65 5 12 95 100 5 6 5 29 35 10 6 53 63
5 5 0 0 0 0 0 0 0 0 3 5 5 5 5 5 4 0 0 0 2 1 0 0 2 5 5 47 5 5 5 53 44 5 2 4 5 5 5 6 62 90 87
21 8 5 0 0 0 2 0 0 0 0 0 0 2 5 5 99 98 0 0 0 0 0 5 5 0 0 3 0 0 5 3 5 3 11 23 23 22 11 5 5 7 72
73 11 5 39 0 0 0 0 0 0 0 0 0 0 5 39 5 49 100 9 0 0 0 2 1 4 3 2 5 5 5 5 5 5 5 5 56 86 70 5 5 5 5
23 5 5 4 0 0 5 1 0 0 0 0 2 0 1 2 17 10 70 100 47 8 3 2 5 5 5 1 5 3 5 5 11 6 20 11 43 25 52 24 6 5 5
41 3 6 0 5 1 0 4 0 0 0 0 1 4 0 0 1 2 5 49 95 12 44 5 11 71 32 5 4 5 5 5 5 5 5 5 5 5 8 14 23 34 10
87 28 3 5 36 0 0 0 0 0 0 0 0 5 0 5 5 4 5 5 26 100 100 96 8 7 5 4 1 3 1 2 5 5 5 4 4 4 2 4 5 5 5
98 20 3 6 5 1 0 0 1 2 5 6 3 2 3 92 45 5 5 13 40 73 32 99 99 29 16 9 5 5 23 52 86 81 100 100 79 15 31 2 3 4 5
100 79 9 16 92 9 5 0 2 54 5 11 41 45 96 100 100 81 50 5 33 99 8 46 72 17 5 73 28 76 60 69 8 17 88 75 38 98 45 33 79 18 5
100 100 100 100 100 68 11 16 2 0 5 4 1 98 100 100 100 100 54 70 81 18 12 14 5 5 58 11 7 38 6 88 42 33 11 5 11 85 92 89 52 44 12
100 100 100 100 100 80 48 87 86 34 1 1 2 100 100 100 94 100 100 72 55 44 6 5 10 59 7 5 10 11 5 18 22 66 76 14 5 20 5 25 59 77 9
100 100 100 100 100 100 98 31 72 100 92 41 19 5 89 100 24 40 60 78 78 68 32 80 24 22 5 8 5 13 5 5 62 92 38 33 31 41 34 74 33 5 15
100 98 100 85 100 100 100 69 71 100 100 99 100 20 5 82 5 21 100 73 30 31 30 64 100 100 57 51 29 10 5 17 14 79 99 56 84 67 100 93 72 30 27
100 100 100 100 100 100 100 84 81 73 100 100 52 89 100 98 67 62 97 100 66 46 46 90 20 33 100 100 100 100 100 100 100 100 87 84 99 100 67 76 54 55 100
100 100 100 100 100 100 100 100 100 57 86 98 100 64 97 100 100 100 100 100 98 100 100 97 100 100 86 100 100 93 96 100 100 100 100 96 95 78 96 100 94 54 60
100 100 100 100 100 100 100 100 100 100 100 100 100 100 100 96 100 100 100 100 100 100 100 100 100 100 100 100 100 99 100 100 99 99 100 100 100 100 100 95 100 100 100
100 100 100 100 100 100 100 100 100 100 100 100 100 100 100 100 100 100 100 100 100 100 100 100 100 100 100 100 100 100 96 100 100 99 100 100 100 100 100 100 100 100 92
100 100 100 100 100 100 100 100 100 100 100 99 100 100 100 100 100 100 100 100 100 100 100 100 100 100 100 100 100 100 100 61 48 65 99 50 62 100 96 77 100 74 100
100 100 100 100 100 100 100 100 100 100 100 100 100 100 100 100 100 100 100 100 100 100 100 100 100 100 100 100 100 100 100 100 100 89 99 100 96 100 100 100 100 100 100
100 100 100 100 100 100 100 100 100 100 100 100 100 100 100 100 100 100 100 100 100 100 100 100 100 100 100 100 100 100 100 91 95 96 99 89 99 100 100 92 98 97 100
100 100 100 100 100 100 100 100 100 100 100 100 100 100 100 100 100 100 100 100 100 100 100 100 100 100 100 100 100 98 19 15 87 76 98 84 67 93 42 44 42 100 68
100 100 100 100 100 100 100 100 100 100 100 100 100 100 100 100 100 100 100 100 100 100 100 100 100 100 100 100 100 100 98 87 100 100 90 86 52 70 98 94 100 64 82
100 100 100 100 100 100 100 100 100 100 100 100 100 100 100 100 100 100 100 100 100 100 100 100 100 100 100 100 100 100 100 99 100 100 99 66 72 67 100 82 100 100 62
100 100 100 100 100 100 100 100 99 66 100 100 100 100 100 100 100 100 100 100 100 100 100 100 100 100 100 100 100 100 100 98 99 98 92 88 51 28 32 48 98 100 100